Regional Weather Roundup
Issued by NWS Northern Indiana

Home | Current Version | Previous Version | Text Only | Print | Product List | Glossary Off
Versions: 1 2 3 4 5 6 7 8 9 10 11 12 13 14 15 16 17 18 19 20 21 22 23 24 25 26 27 28 29 30 31 32 33 34 35 36 37 38 39 40 41 42 43 44 45 46 47 48 49 50

000
ASUS43 KIWX 311410
RWRIWX

KIWX WEATHER ROUNDUP
NATIONAL WEATHER SERVICE NORTHERN INDIANA
1000 AM EDT MON AUG 31 2015

NOTE: "FAIR" INDICATES FEW OR NO CLOUDS BELOW 12,000 FEET WITH NO
SIGNIFICANT WEATHER AND/OR OBSTRUCTIONS TO VISIBILITY.

* THESE STATIONS ARE NOT UNDER NWS QUALITY CONTROL. THEY ALSO MAY NOT
  REPORT WEATHER SUCH AS PRECIPITATION OR FOG.

INZ001>027-311500-
NORTHERN INDIANA

CITY           SKY/WX    TMP DP  RH WIND       PRES   REMARKS
GARY*          MOSUNNY   73  68  83 CALM      30.09R HAZE
VALPARAISO     FOG       68  67  96 MISG      30.10R VSB<1/4
MICHIGAN CITY* SUNNY     70  70 100 CALM      30.09S FOG
LAPORTE*       FOG      N/A N/A N/A S3        30.11R VSB<1/4
KNOX*          CLOUDY    66  66 100 SW3       30.10R VSB 1/4
SOUTH BEND     FOG       68  67  96 SW5       30.10S VSB 1/2
ELKHART*       FOG       66  66 100 CALM      30.10R VSB 1/4
GOSHEN         PTSUNNY   70  69  97 SW5       30.10S FOG
MONTICELLO*    SUNNY     72  72  98 CALM      30.09R
LOGANSPORT*    SUNNY     73  66  78 SW5       30.11S
ROCHESTER*     MOSUNNY   77  72  83 W5        30.11R
WARSAW*        PTSUNNY   70  68  94 W5        30.11R FOG
ANGOLA*        PTSUNNY   72  64  78 S3        30.10S
FORT WAYNE     SUNNY     73  68  84 W6        30.11S
HUNTINGTON*    SUNNY     73  66  78 SW3       30.10S
PERU/GRISSOM   SUNNY     75  70  85 W7        30.10R
MARION*        SUNNY     73  64  72 W5        30.12S

$$
INZ028>050-311500-
CENTRAL INDIANA

CITY           SKY/WX    TMP DP  RH WIND       PRES   REMARKS
LAFAYETTE      SUNNY     74  69  85 S3        30.10R
KOKOMO*        SUNNY     77  68  73 W9        30.11S
MUNCIE*        SUNNY     73  69  87 W6        30.12S
INDIANAPOLIS   SUNNY     74  68  81 SW5       30.11S

$$
MIZ043>046-050>051-056>058-064>065-071>073-077>080-311500-
SOUTHWEST LOWER MICHIGAN

CITY           SKY/WX    TMP DP  RH WIND       PRES   REMARKS
BATTLE CREEK   CLOUDY    70  66  87 S5        30.11R FOG
BENTON HARBOR  CLOUDY    68  66  93 CALM      30.08S FOG
COLDWATER*     SUNNY     71  70  99 CALM      30.11R FOG
HILLSDALE*     MOSUNNY   71  71 100 CALM      30.12R FOG
HOLLAND        MOSUNNY   68  65  90 CALM      30.10R FOG
GRAND RAPIDS   FOG       65  63  93 CALM      30.10S VSB 3/4
KALAMAZOO      CLOUDY    68  65  90 SW3       30.11R FOG
STURGIS*       SUNNY     70  70 100 CALM      30.10R FOG
THREE RIVERS*  FOG       67  67 100 CALM      30.10S VSB 1/2

$$
OHZ001>008-015>018-024>025-311500-
NORTHWEST OHIO

CITY           SKY/WX    TMP DP  RH WIND       PRES   REMARKS
WAUSEON*       FAIR      72  72 100 CALM      30.11R FOG
DEFIANCE       FOG       69  68  96 CALM      30.11R VSB 1/4
FINDLAY        SUNNY     75  69  81 SW6       30.10S
TOLEDO EXPRESS SUNNY     73  69  87 CALM      30.10R FOG
TOLEDO METCALF SUNNY     74  68  81 SW3       30.11R HAZE
LIMA           SUNNY     74  68  81 W6        30.12S

$$
AND FOR LAKE MICHIGAN COASTAL AND OPEN LAKE BUOY OBSERVATIONS

STATION/POSITION TEMP    WIND        PRES    VSBY  WAVE
                 AIR SEA DIR/SP/G                  HT/PER
                 (F)     (DEG/KT/KT) (MB)    (MI)  (FT/S)
MICHIGAN CITY     67     180/  3/  3   N/A
BURNS HARBOR      68     270/  2/  5 1019.0
SAINT JOSEPH      70      CALM  /  2 1019.3F
SOUTH LAKE BUOY   68 68  220/  4/  4 1018.2R         0
4 MI NW BRIDGMAN  69 71  190/  2/  2   N/A           0
MICHIGAN CITY     70 71  270/  2/  4   N/A           0

$$
&&


USA.gov is the U.S. government's official web portal to all federal, state and local government web resources and services.